Theta_e
304 308 323 326 328 329 330 331 335 339 343 347 348 348 346 347 347 350 352 351 353 354 353 355 355 353 353 353 353 352 350 349 349 349 350 348 347 346 347 347 346 342 347
305 310 321 323 325 326 327 328 329 332 337 341 344 347 347 347 347 348 349 351 352 353 354 354 355 355 354 353 351 351 351 350 348 348 348 348 347 345 347 346 346 341 347
303 307 312 320 322 323 324 326 327 328 330 334 338 341 346 346 348 347 349 350 352 352 352 353 353 354 353 352 351 351 350 348 346 344 344 336 336 345 346 346 347 345 347
302 305 310 318 320 320 321 322 323 325 326 328 331 336 339 345 346 347 348 350 351 351 351 352 353 353 353 351 350 350 349 346 343 341 333 332 334 344 345 345 346 345 347
298 302 308 315 317 318 319 320 320 322 322 324 326 328 333 336 341 345 347 348 350 349 351 351 353 353 352 351 350 349 347 344 340 336 328 329 329 338 343 344 345 346 346
296 298 305 311 313 314 315 317 318 319 320 321 322 323 325 329 332 336 343 346 347 349 350 351 352 352 351 350 349 348 346 343 338 327 326 329 328 336 342 342 343 345 344
294 296 298 307 308 310 311 313 314 315 317 318 319 320 321 321 325 330 336 342 345 347 347 349 349 350 350 349 348 347 344 340 331 325 324 326 326 338 339 341 341 343 343
293 294 295 299 303 304 306 308 310 311 313 315 316 316 317 318 319 324 328 330 340 343 346 347 348 348 347 347 346 345 341 336 330 326 324 325 330 338 337 339 341 343 342
292 292 292 293 295 298 301 303 305 307 309 310 311 312 312 313 314 316 319 325 330 336 342 345 344 345 344 344 344 341 337 333 330 328 326 323 331 339 340 340 343 344 344
291 290 290 290 291 291 292 299 301 303 305 305 306 307 308 308 309 310 313 316 324 327 334 340 342 342 343 342 340 337 333 331 331 328 326 323 330 337 341 342 344 346 345
290 288 288 289 290 290 292 294 296 298 299 300 301 303 302 302 303 305 309 312 318 324 330 336 338 341 338 336 336 334 331 334 329 328 326 327 331 335 342 344 346 346 346
285 287 287 287 288 289 292 292 291 292 293 294 297 298 299 300 301 304 306 310 314 322 328 333 335 334 331 337 335 332 336 333 330 328 326 329 333 335 340 346 344 346 346
285 285 287 287 287 287 289 290 289 290 290 292 293 295 297 299 300 301 303 305 309 315 323 328 333 334 335 336 335 335 334 331 331 329 327 328 334 337 342 346 344 344 345
284 285 286 286 286 287 288 288 288 288 290 290 292 295 297 296 297 299 301 303 306 311 316 322 326 333 336 335 335 334 334 333 329 329 327 324 331 337 343 344 343 343 343
284 284 285 285 285 287 286 287 287 287 289 290 292 293 295 295 295 297 298 301 304 307 311 314 321 328 334 335 335 334 333 332 329 328 327 320 326 333 341 343 343 343 344
285 284 285 285 286 286 285 285 286 287 288 290 290 291 294 295 295 296 298 299 302 305 307 310 315 322 331 333 334 334 333 332 330 329 328 326 324 329 337 343 343 344 345
283 284 284 285 286 285 285 285 286 286 288 288 289 291 293 295 295 295 297 299 301 304 306 308 312 321 326 332 332 334 333 330 329 328 328 328 328 323 327 338 341 344 344
283 283 284 285 284 285 284 285 285 286 287 287 289 291 293 295 296 295 295 296 301 303 305 306 309 316 323 328 330 332 331 330 329 327 327 328 327 327 325 328 336 340 341
282 282 282 282 283 284 284 285 285 286 286 287 289 291 292 294 295 294 295 296 298 301 303 305 308 315 319 324 325 323 324 325 324 323 321 324 324 322 319 319 320 324 334
280 281 281 282 282 283 284 284 284 285 286 286 287 289 291 292 293 293 294 295 297 299 302 304 306 314 317 310 306 303 301 300 307 313 318 318 313 311 310 310 311 312 318
280 279 279 280 281 282 281 281 282 282 283 284 287 288 289 289 292 294 297 298 299 299 301 303 305 310 313 308 305 303 301 298 296 296 298 298 298 298 299 301 302 304 307
278 278 279 280 280 281 281 281 283 282 282 284 286 287 289 292 295 296 298 298 299 300 301 302 303 307 314 311 309 305 302 301 296 293 292 293 292 294 294 294 296 297 299
276 276 278 279 279 279 280 282 282 282 282 282 284 285 288 289 291 295 297 297 298 301 301 302 303 307 310 312 312 310 302 302 297 292 290 289 289 289 289 290 290 291 293
276 277 277 278 278 279 280 279 278 279 278 280 281 285 286 288 290 295 294 294 295 298 300 305 309 307 309 310 312 311 306 300 301 294 290 287 287 287 285 287 287 287 288
277 275 275 276 277 279 279 279 279 278 280 281 282 284 285 286 290 293 292 291 292 293 295 298 300 302 307 310 312 306 304 301 301 298 292 287 286 285 285 286 286 286 287
275 274 275 275 277 278 278 278 278 277 279 279 281 281 283 286 288 290 289 289 290 290 291 292 295 298 301 304 308 308 305 303 299 296 291 288 289 284 285 285 285 285 286
Wind_Speed
6 7 16 18 19 20 21 21 21 21 22 21 9 4 3 4 5 7 3 13 14 15 15 15 16 15 14 13 12 11 12 12 12 13 12 11 11 11 11 10 9 7 11
4 7 15 17 18 19 20 20 21 22 23 21 23 14 6 3 4 5 5 9 12 14 15 15 15 15 15 14 12 12 11 11 11 11 10 9 10 13 12 10 9 8 10
6 6 7 16 18 19 20 20 21 22 21 21 21 23 17 7 5 4 6 5 11 14 15 15 15 16 14 13 15 13 12 10 10 11 11 5 4 13 13 11 9 10 9
6 6 7 16 17 18 18 19 20 20 20 21 21 20 21 18 8 6 7 8 7 13 15 15 16 16 15 14 14 16 15 13 12 11 5 5 5 13 13 13 11 10 9
7 7 9 17 18 19 19 19 20 20 20 20 20 19 19 20 20 12 8 9 10 11 14 16 16 16 15 16 17 15 16 15 13 10 7 6 5 10 14 12 12 10 9
7 8 11 15 17 18 18 18 19 19 20 19 19 20 19 19 20 18 16 12 12 13 14 16 16 16 15 17 18 17 15 15 13 7 6 7 6 12 15 14 10 9 10
5 6 6 14 15 17 17 17 19 19 19 18 19 19 19 19 17 17 17 16 14 13 15 16 16 16 16 16 18 17 16 14 8 7 6 6 6 14 15 15 13 11 12
6 5 6 12 15 16 16 16 18 19 19 18 18 19 20 20 20 18 17 17 17 15 14 15 15 16 16 18 18 17 15 14 8 7 7 6 10 14 15 16 15 14 14
6 6 5 5 9 12 14 14 18 19 18 19 19 18 19 19 19 20 18 16 16 17 15 15 16 17 19 19 18 15 14 14 9 6 7 5 12 15 16 16 16 15 17
5 5 6 5 5 6 5 13 16 17 18 19 19 18 19 16 17 17 17 17 18 17 16 16 15 17 17 21 16 14 13 13 8 7 5 5 14 16 17 17 17 16 17
3 4 5 7 7 8 7 10 12 14 16 17 15 18 13 7 9 11 15 19 18 17 16 17 16 15 14 14 14 15 14 6 7 5 4 11 15 16 16 20 19 18 19
2 4 5 6 6 7 8 7 7 8 5 5 7 8 7 8 7 12 12 17 17 15 16 16 15 13 12 6 6 11 7 8 7 7 5 14 16 17 16 17 17 18 21
2 2 5 5 5 5 5 5 4 5 5 4 5 7 7 7 6 5 5 5 6 9 6 7 7 6 9 7 6 7 7 6 6 6 7 14 15 16 17 18 17 19 21
2 1 3 5 5 5 3 3 4 5 6 5 6 7 5 5 6 6 5 6 5 5 8 6 6 7 8 10 10 11 11 9 5 4 6 13 14 14 16 19 19 22 23
3 1 3 4 3 3 4 4 4 4 4 7 7 6 5 4 6 6 7 6 6 5 6 7 6 8 7 9 10 12 12 11 10 6 4 10 11 13 15 20 20 24 26
4 3 3 5 4 4 3 4 4 4 6 5 6 7 7 5 5 6 7 7 7 6 6 6 8 7 8 9 12 13 14 13 11 10 7 7 12 10 13 17 19 26 27
3 2 3 5 3 5 5 4 4 4 5 6 7 9 8 6 5 7 6 7 7 7 8 7 8 8 8 9 13 13 12 13 10 7 4 3 7 8 7 13 19 23 26
2 3 4 5 5 5 5 5 5 5 4 6 6 7 9 8 6 6 6 7 8 7 7 6 7 8 8 8 9 9 10 13 15 15 12 9 5 3 9 4 15 21 21
4 2 4 5 5 6 6 6 6 8 6 5 5 6 9 8 8 7 7 7 9 8 7 7 7 6 8 6 3 4 5 8 13 10 15 9 5 4 2 7 9 4 12
2 2 5 4 5 6 5 6 5 5 3 4 6 6 9 8 10 9 7 8 8 8 7 7 8 7 4 1 3 6 6 7 6 1 5 4 3 4 3 4 3 5 7
1 3 4 5 6 6 5 6 5 6 7 7 5 10 11 11 11 10 7 10 9 8 9 8 6 8 3 3 2 4 5 7 9 5 5 5 6 4 5 3 2 1 2
3 4 5 5 5 5 5 5 4 8 6 8 8 9 9 11 11 11 10 10 12 10 9 9 7 6 3 6 3 3 3 2 4 6 5 6 6 3 4 6 5 3 2
4 5 5 5 5 5 6 5 6 7 6 6 6 8 9 12 12 12 8 8 8 9 8 8 6 7 5 7 7 3 3 4 4 1 3 4 5 6 5 5 7 5 3
2 3 5 5 7 6 5 5 5 9 11 9 8 9 10 13 13 10 7 8 8 6 9 7 5 3 4 6 4 3 3 4 4 2 3 5 6 6 5 5 5 4 3
3 5 5 6 6 6 6 5 5 8 9 9 10 12 11 11 13 6 6 7 8 4 6 9 4 2 3 3 3 2 3 2 3 4 5 2 2 3 3 1 4 5 6
4 5 5 6 5 6 6 7 7 9 11 10 10 9 8 8 8 7 7 5 6 5 5 6 7 4 3 3 3 1 3 2 3 4 4 4 3 2 3 2 4 4 5
Wind_Direction
2 342 16 21 25 25 28 26 24 18 18 16 356 356 353 335 324 327 223 180 179 179 183 180 168 168 165 166 168 162 155 156 157 150 152 145 143 139 133 118 109 114 123
19 354 18 26 26 26 25 27 26 23 20 13 10 1 326 305 304 314 299 194 187 188 185 186 176 175 170 166 164 163 156 153 153 142 139 147 157 150 142 135 129 140 144
33 2 5 25 24 24 24 26 23 22 18 14 10 5 4 314 271 275 289 267 197 195 193 191 192 183 173 168 165 165 157 146 142 142 139 140 167 159 152 147 149 147 147
29 6 8 21 20 21 21 21 21 20 16 13 13 5 357 4 311 261 259 274 248 203 200 199 196 195 180 175 174 163 160 154 154 150 133 156 176 172 166 160 157 160 154
34 13 11 17 16 14 15 15 14 13 12 10 8 6 2 357 359 336 272 258 254 227 212 209 202 199 186 182 178 173 167 163 160 148 157 166 177 184 176 181 171 161 151
37 21 13 19 13 11 7 7 9 7 5 4 3 3 1 357 353 348 346 297 264 249 234 223 213 199 180 181 179 174 173 166 157 154 163 175 180 192 184 182 187 171 165
71 39 21 25 19 13 9 6 3 1 360 359 358 357 357 355 349 346 342 335 312 264 247 239 222 205 190 186 180 177 172 168 159 163 169 177 184 195 190 191 192 202 187
73 46 34 23 18 13 7 7 3 358 356 354 354 353 352 350 349 348 347 339 334 314 268 249 233 220 203 191 187 177 174 168 163 171 174 176 191 196 195 196 197 201 203
55 43 27 23 14 11 5 11 1 357 354 352 350 350 349 346 346 343 341 341 336 334 316 274 250 237 224 207 195 179 178 172 169 177 179 185 197 202 204 198 203 211 204
64 42 16 12 10 2 349 10 3 356 353 348 346 347 346 344 341 336 335 335 328 325 318 307 286 253 242 223 203 186 184 181 182 179 186 191 201 206 214 220 209 207 200
81 57 25 13 7 358 349 359 358 353 349 346 343 341 344 338 329 329 325 326 323 322 316 302 292 281 249 227 204 194 180 194 186 188 187 199 202 213 223 213 213 204 203
16 9 32 21 5 353 351 350 347 341 335 330 333 332 333 324 326 326 320 323 323 324 313 303 288 285 262 224 210 195 192 190 191 196 195 199 209 216 224 218 208 209 203
150 43 17 10 358 357 351 345 338 336 331 330 324 329 317 327 324 324 319 321 322 314 311 310 292 259 252 222 200 193 197 192 197 198 201 198 208 218 225 218 208 205 187
143 37 1 357 353 348 336 325 318 324 324 322 321 316 322 324 325 322 314 313 307 306 301 296 287 258 247 228 202 196 197 196 190 202 207 194 207 218 222 216 211 206 193
168 322 329 329 322 320 310 306 297 293 306 307 309 311 306 306 309 312 307 303 296 298 296 299 290 286 244 224 215 203 200 199 189 179 186 206 220 217 222 219 216 209 200
177 222 279 289 274 307 292 288 284 289 290 287 298 296 295 286 292 298 304 302 295 290 287 288 291 284 268 231 221 213 210 197 195 191 189 193 207 225 231 218 214 210 205
200 228 279 302 348 321 298 284 289 262 298 293 292 292 290 281 288 293 293 297 291 290 288 286 283 277 282 237 232 226 204 184 174 164 205 204 186 186 219 244 213 215 213
209 252 300 324 323 320 317 310 303 296 269 282 286 289 286 283 288 290 285 282 289 291 287 284 287 287 280 263 240 235 209 193 193 186 194 171 218 183 163 155 226 217 219
212 275 324 341 327 317 318 315 307 301 287 276 289 286 297 285 289 284 279 279 283 285 280 276 281 271 280 270 274 294 259 206 188 195 196 191 163 155 198 121 102 81 211
217 327 326 324 326 334 325 317 308 293 291 302 289 279 290 294 290 283 276 274 274 276 274 270 267 268 278 155 80 85 38 6 4 150 206 192 92 125 137 75 58 100 84
235 322 331 337 333 338 332 329 328 313 320 305 299 299 291 286 283 275 267 285 279 265 263 260 271 279 211 165 136 85 49 66 28 26 27 43 66 22 23 86 91 44 77
303 325 343 342 338 326 320 315 303 311 300 301 294 292 281 290 306 298 294 291 289 273 261 255 237 260 228 203 156 119 142 125 55 32 25 61 34 33 31 43 61 36 59
326 343 338 326 316 308 300 300 303 305 300 306 311 310 306 303 302 293 312 297 291 296 253 252 232 237 257 209 212 169 154 187 134 54 37 66 50 54 1 41 35 17 32
328 332 318 312 310 309 316 302 302 303 300 302 303 297 306 301 293 288 310 308 299 309 303 264 252 237 238 249 218 200 63 137 161 158 11 35 41 57 13 21 28 15 349
323 304 310 304 297 299 299 285 287 291 292 295 298 300 302 302 287 313 312 311 300 321 320 304 297 298 281 252 244 144 115 47 9 138 138 103 39 45 67 10 16 27 355
317 320 314 306 298 303 302 300 291 287 293 292 294 299 296 291 306 302 311 303 297 317 326 319 300 289 295 296 252 125 227 179 185 142 98 127 144 134 63 94 50 46 349